Vertical_Velocity
1 0 -0 0 -1 -1 -0 -1 -1 -0 -0 -0 -0 -1 -0 -1 -1 -0 -1 -1 -1 -0 0 -0 0 0 -0 1 -1 1 0 -0 -1 -1 -0 -0 -1 -0 -1 -0 -2 -2 0
0 1 1 -1 -0 -2 -0 -0 -1 -0 -0 -1 -1 -1 -1 -1 -1 -1 -1 -1 -1 -1 -1 -0 -1 -0 -0 0 1 1 0 1 -0 -0 -0 -1 -0 -0 -1 -1 -0 1 1
1 -0 0 -1 -0 -0 -0 -1 -1 -1 -1 -0 -1 0 -1 -1 -0 -0 -1 -1 -0 -0 -1 -0 -1 -0 -1 0 -0 -0 -1 -0 0 -0 -0 -0 -0 -1 -0 -0 -0 0 -1
2 1 -0 0 -1 -0 -1 -0 -1 -1 -1 -1 -0 -1 -0 -2 -1 -0 -0 0 -0 -0 -1 -1 0 -0 -0 -0 -1 -0 -0 -0 0 -0 -1 -0 -1 -1 -1 -0 -1 -1 -1
1 1 -1 -1 0 -1 -1 0 -1 -1 -2 -0 -1 -0 -1 -1 -1 -1 -0 -0 -0 1 0 -0 0 0 0 0 -0 0 -1 -1 0 1 1 0 -0 -1 -1 -0 -0 -1 -2
3 -1 0 -0 0 -1 1 0 -1 1 -0 -0 -2 -1 -1 -1 -1 -1 -2 -0 -1 -0 0 1 -1 -1 -1 -1 -2 -1 0 -0 -1 -1 -1 0 0 -0 -0 -0 -1 -2 -1
4 1 1 1 -2 -0 0 1 1 0 -1 -1 -1 -1 -1 -1 -0 -1 -1 -1 -1 -1 0 0 1 -0 -1 -1 -1 -0 0 -0 -1 -0 -1 -1 -1 -1 0 -0 -1 -2 -1
3 3 -0 -1 0 -1 1 0 0 -0 -1 -1 -0 -1 1 -1 -1 -1 1 0 -1 -0 -0 -0 -0 1 1 -0 -1 -1 -0 -0 -1 -0 -0 -2 -1 -1 -1 -1 -1 -2 -1
2 1 1 0 1 1 2 0 -0 -0 -1 -1 -1 2 -1 -2 -0 -0 0 0 0 -1 -1 0 -0 -0 0 1 1 0 -0 -0 -1 0 0 0 -2 -0 1 -1 0 -0 -2
3 0 1 0 -1 2 1 3 -0 -1 0 -1 -2 0 -1 -3 -2 -1 0 -0 -0 -0 0 1 -0 -0 1 1 -1 -0 0 -1 -0 0 -1 1 1 -1 -1 -0 -2 -2 -2
1 1 1 1 1 1 2 0 0 1 1 -0 2 -3 -0 -2 -2 -1 -1 -1 0 -1 -1 1 1 0 -1 0 -0 -1 -0 -1 -0 -1 0 -1 -1 0 -1 -2 -1 -2 -2
2 2 1 2 2 1 2 1 -0 0 -0 2 -3 -2 -0 -2 -1 -0 -2 -1 -1 -2 -1 -1 -1 1 -0 -0 0 0 -0 -1 -1 0 0 -0 -0 0 0 -0 -1 -2 -1
-1 1 -0 1 1 2 0 1 -1 1 -0 1 0 -0 -0 -1 -1 -0 -1 -1 -1 -0 -1 -1 -1 -0 -0 -0 0 -1 -1 -1 -1 -0 -0 -1 -2 -1 -1 -1 -0 -1 -2
2 -2 0 2 0 -0 1 -1 2 0 1 0 1 1 -1 0 -1 -1 -1 -1 -1 -1 -1 -0 -1 -1 -0 0 -0 -1 -1 -1 -1 -0 -0 -2 -1 -2 -2 -1 -3 1 -0
3 -0 -0 1 2 1 2 2 1 -0 0 -1 1 -6 1 -0 0 -1 -0 -2 -1 -0 -1 -1 0 -0 0 -0 -1 -0 -1 -1 -1 -1 -1 -2 -2 -1 -2 -1 -2 -1 -1
3 -11 -1 -1 0 0 0 2 2 1 -1 -0 0 -2 0 -0 -1 -1 -1 -1 -1 0 -1 -1 -0 0 0 0 -1 -1 -1 -2 -1 -1 -0 -2 -2 -2 -0 0 -0 -1 -1
125 32 -1 1 0 -1 2 -0 0 1 -0 -2 -1 -1 -2 -0 -1 -1 -1 -0 -0 0 0 -1 -1 -1 -2 -2 -1 -2 -2 -2 -1 -1 1 0 -2 -3 -4 -2 -1 -1 -1
11 31 14 4 3 0 0 0 0 1 -0 -1 -1 -2 -1 -1 -2 -1 -1 -1 -0 -1 -1 -0 -0 -1 -1 -2 -2 -2 -2 -2 -1 -1 -1 -1 -0 -0 -2 -2 -2 -2 -1
2 6 5 -2 1 1 -4 1 1 2 -0 -1 -1 -1 0 -1 -1 -1 -1 -1 -1 -1 -1 -2 -2 -1 -0 -0 -0 -1 -1 -1 -1 0 -0 -0 -1 -1 -0 -2 -1 -2 -1
7 5 4 1 2 0 -1 -2 -2 -1 -0 -0 -1 -1 -0 -1 -1 -0 -1 0 -2 -2 -2 -0 -0 -0 -0 0 0 -0 -1 -1 -1 -1 -0 -1 -1 -0 -1 -1 -1 -3 -1
4 13 0 0 2 2 1 1 -0 0 -1 -2 -2 -1 -2 -1 -2 -2 -2 -4 -4 -2 -1 -1 -1 -1 -1 -1 -1 0 -2 -0 -2 -1 -1 0 1 -2 -2 -2 -2 -1 -2
10 6 2 2 2 -1 -0 0 1 2 -0 -0 -1 -1 -1 -1 -2 -1 -2 -4 -1 -1 -2 -1 -1 -1 -1 -2 -2 -2 0 3 -12 -3 -1 -4 -3 -1 -3 -3 -2 -2 -1
1 10 8 1 0 1 -1 2 1 2 1 0 -1 1 -2 -1 -1 -0 -1 -1 -0 0 -2 -1 -1 -0 1 -2 -2 -3 -1 -5 -0 8 -7 -4 -5 -2 -1 1 -2 -1 -2
3 1 9 14 -4 -5 2 -1 2 -1 2 -1 -0 -0 -1 -2 -2 -2 -1 -1 -1 -1 -0 -0 -1 -1 -2 -0 -2 -4 -1 -3 -3 -7 6 -5 -5 -0 -2 -1 -1 -2 -3
2 -5 4 1 2 3 3 1 3 5 1 1 1 1 -1 1 1 1 -1 -0 -0 0 -1 -0 -1 -2 -1 -1 -1 1 -1 -4 -4 -1 3 -9 13 -4 -1 -7 -2 1 2
5 1 -3 -7 -2 4 3 3 -3 -4 1 1 1 3 1 0 1 -3 -3 -3 -1 -1 -2 0 0 0 -0 -2 -2 -1 -2 -1 -1 1 -2 -4 -1 -5 -1 -5 -0 -0 -0
Height
5865 5866 5867 5867 5868 5869 5869 5870 5871 5872 5872 5872 5873 5873 5873 5873 5873 5873 5872 5872 5871 5870 5869 5869 5869 5869 5868 5868 5868 5868 5867 5866 5865 5864 5863 5861 5860 5858 5856 5855 5854 5851 5849
5864 5865 5866 5866 5867 5868 5869 5870 5871 5871 5872 5872 5873 5873 5873 5873 5873 5873 5872 5872 5872 5870 5870 5869 5869 5868 5868 5867 5867 5867 5866 5865 5864 5863 5862 5860 5858 5857 5855 5853 5851 5849 5847
5862 5863 5864 5865 5867 5867 5868 5869 5870 5871 5872 5872 5873 5873 5873 5873 5873 5873 5872 5872 5872 5871 5870 5869 5869 5868 5868 5867 5866 5866 5865 5864 5863 5862 5861 5859 5858 5856 5854 5852 5850 5848 5846
5859 5861 5862 5864 5866 5867 5868 5868 5869 5870 5871 5872 5872 5872 5872 5873 5873 5873 5872 5872 5871 5870 5869 5869 5868 5868 5867 5866 5866 5865 5864 5863 5862 5861 5860 5858 5857 5855 5853 5851 5849 5847 5845
5857 5858 5860 5863 5865 5865 5867 5867 5869 5870 5870 5871 5871 5872 5872 5873 5873 5872 5872 5872 5871 5870 5869 5869 5868 5867 5866 5865 5864 5864 5863 5862 5861 5860 5858 5857 5856 5854 5852 5850 5848 5846 5844
5854 5855 5858 5861 5863 5864 5866 5867 5868 5869 5870 5870 5871 5871 5871 5871 5871 5871 5871 5871 5871 5870 5869 5868 5867 5866 5866 5864 5863 5863 5862 5861 5859 5858 5857 5855 5854 5852 5850 5848 5846 5844 5842
5850 5852 5855 5857 5860 5862 5864 5865 5867 5868 5869 5869 5870 5870 5870 5870 5870 5870 5869 5870 5869 5869 5868 5868 5867 5866 5865 5864 5862 5861 5860 5859 5858 5857 5855 5853 5852 5850 5848 5846 5845 5843 5840
5847 5849 5851 5854 5856 5859 5861 5863 5864 5865 5867 5868 5869 5869 5869 5869 5869 5868 5868 5868 5868 5868 5867 5866 5866 5865 5864 5862 5861 5860 5858 5858 5856 5855 5854 5852 5850 5848 5847 5844 5842 5841 5838
5843 5846 5848 5851 5854 5856 5858 5860 5862 5863 5865 5866 5867 5867 5868 5868 5867 5867 5866 5866 5866 5866 5866 5865 5864 5864 5863 5861 5860 5858 5857 5855 5854 5853 5852 5850 5848 5846 5844 5842 5840 5838 5836
5838 5841 5845 5847 5850 5853 5855 5856 5859 5861 5862 5864 5865 5865 5866 5867 5866 5865 5865 5864 5864 5864 5864 5863 5862 5861 5861 5860 5858 5857 5855 5854 5852 5851 5849 5847 5845 5843 5841 5840 5838 5836 5833
5834 5838 5841 5844 5846 5849 5852 5853 5856 5858 5860 5861 5862 5864 5864 5865 5864 5863 5863 5862 5862 5862 5861 5860 5860 5859 5858 5857 5856 5854 5853 5851 5850 5849 5847 5845 5843 5841 5839 5837 5835 5833 5830
5830 5834 5837 5839 5843 5845 5848 5849 5852 5855 5857 5858 5859 5861 5861 5862 5862 5861 5860 5860 5860 5859 5858 5857 5857 5856 5855 5854 5853 5851 5850 5848 5847 5845 5844 5842 5840 5838 5836 5834 5832 5829 5827
5824 5828 5832 5835 5838 5841 5844 5846 5848 5851 5854 5855 5856 5858 5858 5859 5859 5858 5857 5857 5857 5856 5855 5854 5853 5852 5852 5851 5850 5848 5847 5845 5844 5842 5840 5839 5837 5835 5832 5830 5828 5826 5823
5818 5823 5827 5831 5834 5837 5840 5842 5843 5847 5849 5851 5852 5854 5855 5855 5856 5855 5854 5854 5853 5852 5851 5849 5848 5848 5847 5846 5845 5844 5843 5842 5840 5838 5836 5835 5832 5830 5828 5826 5823 5821 5819
5811 5816 5820 5824 5829 5832 5835 5837 5839 5842 5845 5846 5848 5849 5851 5852 5852 5852 5851 5851 5850 5848 5847 5845 5844 5843 5842 5841 5841 5840 5838 5837 5835 5834 5832 5829 5827 5825 5823 5820 5818 5816 5813
5803 5807 5812 5817 5821 5826 5830 5833 5835 5837 5840 5842 5843 5846 5847 5848 5848 5848 5847 5847 5846 5844 5842 5841 5839 5838 5837 5837 5836 5835 5833 5832 5830 5828 5826 5824 5822 5819 5817 5814 5812 5810 5808
5778 5787 5800 5808 5813 5819 5824 5828 5830 5833 5835 5837 5839 5841 5843 5843 5843 5844 5843 5843 5842 5840 5838 5836 5835 5833 5832 5831 5830 5829 5828 5826 5824 5822 5820 5818 5816 5814 5811 5808 5806 5804 5801
5784 5786 5790 5798 5806 5811 5817 5821 5824 5827 5830 5833 5835 5836 5837 5838 5838 5838 5838 5838 5837 5836 5834 5831 5829 5828 5826 5825 5824 5823 5821 5820 5818 5816 5814 5811 5809 5807 5804 5802 5799 5797 5794
5781 5784 5788 5792 5799 5805 5810 5815 5819 5822 5825 5828 5830 5831 5832 5832 5833 5833 5833 5832 5831 5830 5828 5826 5824 5822 5821 5819 5818 5816 5815 5813 5812 5809 5807 5804 5802 5800 5797 5794 5791 5789 5786
5775 5780 5783 5789 5795 5800 5804 5809 5813 5816 5818 5821 5823 5824 5825 5826 5827 5826 5826 5826 5825 5824 5822 5820 5819 5816 5814 5813 5811 5809 5807 5805 5803 5802 5799 5797 5795 5792 5789 5787 5784 5780 5777
5769 5775 5781 5786 5791 5796 5800 5803 5807 5810 5812 5814 5816 5818 5819 5820 5820 5819 5819 5819 5818 5817 5815 5813 5811 5809 5807 5805 5803 5802 5799 5798 5795 5793 5791 5789 5787 5784 5781 5778 5775 5772 5768
5762 5769 5775 5780 5785 5790 5795 5798 5801 5804 5806 5808 5809 5811 5812 5812 5812 5812 5812 5811 5811 5809 5808 5806 5803 5801 5798 5796 5794 5793 5791 5790 5786 5784 5782 5780 5777 5774 5771 5768 5764 5761 5759
5756 5763 5768 5773 5778 5783 5787 5790 5793 5796 5798 5800 5801 5803 5804 5805 5805 5804 5803 5803 5802 5801 5798 5797 5794 5792 5790 5787 5785 5783 5781 5780 5778 5777 5773 5770 5767 5764 5760 5757 5753 5750 5747
5748 5756 5762 5766 5770 5776 5780 5783 5785 5787 5789 5791 5793 5794 5794 5795 5796 5795 5795 5794 5793 5792 5789 5787 5785 5782 5779 5778 5775 5773 5771 5769 5767 5765 5763 5759 5754 5751 5748 5746 5743 5740 5737
5739 5747 5754 5760 5764 5767 5770 5772 5774 5776 5779 5781 5784 5785 5785 5787 5788 5787 5787 5786 5784 5782 5780 5778 5775 5773 5770 5768 5766 5764 5762 5758 5756 5754 5750 5746 5744 5739 5736 5733 5731 5728 5725
5734 5739 5745 5751 5755 5759 5762 5761 5763 5767 5771 5773 5775 5776 5777 5778 5777 5777 5776 5775 5773 5773 5771 5769 5766 5764 5761 5759 5756 5754 5751 5748 5745 5742 5739 5735 5731 5726 5723 5719 5716 5715 5713